Powrót do katalogu

STARLINK-32886

AktywnyŁącznośćVLEO
NORAD 62807·PAYLOAD·🇺🇸 United States

Wystrzelony Jan 24, 2025 z Vandenberg Space Force Base

Loading…

Następne Przeloty (najbliższe 24 godziny)

TLE

ŚwieżeSource: CelesTrak SupGP

Epoka: Sep 14, 2026, 20:38 UTC

1 62807C 25018B   26257.86020833 -.00053559  00000+0 -15817-2 0  2570
2 62807  53.1569 147.7955 0001062  96.1611 325.4095 15.34430938    14

Śledź STARLINK-32886 w czasie rzeczywistym z AllMySat

Download on the App Store